| time (UTC) | temp C | wind direction | speed KPH | gust KPH | rain 1hr cm | rain 24hr cm | rain mn cm | humidity % | barometer mb |
| 20260505214002 | 7 | 356 | 3.2 | 3.2 | 0.00 | 0.00 | 0.00 | 85 | 1018.0 |
| 20260505213001 | 7 | 356 | 1.6 | 3.2 | 0.00 | 0.00 | 0.00 | 85 | 1018.0 |
| 20260505212002 | 7 | 8 | 3.2 | 3.2 | 0.00 | 0.00 | 0.00 | 85 | 1018.0 |
| 20260505211001 | 7 | 6 | 3.2 | 3.2 | 0.00 | 0.00 | 0.00 | 85 | 1018.0 |
| 20260505210001 | 7 | 12 | 1.6 | 3.2 | 0.00 | 0.00 | 0.00 | 85 | 1018.0 |
| 20260505205002 | 8 | 358 | 0.0 | 0.0 | 0.00 | 0.00 | 0.00 | 84 | 1018.0 |
| 20260505204001 | 8 | 6 | 1.6 | 1.6 | 0.00 | 0.00 | 0.00 | 84 | 1018.0 |
| 20260505203002 | 8 | 353 | 3.2 | 3.2 | 0.00 | 0.00 | 0.00 | 84 | 1018.0 |
| 20260505202001 | 8 | 6 | 1.6 | 3.2 | 0.00 | 0.00 | 0.00 | 84 | 1018.0 |
| 20260505201002 | 8 | 9 | 0.0 | 1.6 | 0.00 | 0.00 | 0.00 | 84 | 1018.0 |
| 20260505200002 | 8 | 353 | 1.6 | 3.2 | 0.00 | 0.00 | 0.00 | 85 | 1018.0 |
| 20260505195002 | 8 | 89 | 3.2 | 3.2 | 0.00 | 0.00 | 0.00 | 85 | 1018.0 |
| 20260505194002 | 9 | 45 | 3.2 | 4.8 | 0.00 | 0.00 | 0.00 | 85 | 1018.0 |
| 20260505193001 | 9 | 3 | 1.6 | 3.2 | 0.00 | 0.00 | 0.00 | 85 | 1018.0 |
| 20260505192002 | 10 | 33 | 1.6 | 1.6 | 0.00 | 0.00 | 0.00 | 86 | 1018.0 |
| 20260505191001 | 10 | 138 | 0.0 | 1.6 | 0.00 | 0.00 | 0.00 | 86 | 1018.0 |
| 20260505190003 | 10 | 148 | 3.2 | 3.2 | 0.00 | 0.00 | 0.00 | 86 | 1018.0 |
| 20260505185001 | 10 | 143 | 0.0 | 1.6 | 0.00 | 0.00 | 0.00 | 85 | 1018.0 |
| 20260505184002 | 10 | 132 | 3.2 | 3.2 | 0.00 | 0.00 | 0.00 | 85 | 1018.0 |
| 20260505183002 | 10 | 156 | 0.0 | 0.0 | 0.00 | 0.00 | 0.00 | 86 | 1018.0 |
| 20260505182001 | 10 | 145 | 1.6 | 3.2 | 0.00 | 0.00 | 0.00 | 86 | 1018.0 |
| 20260505181002 | 11 | 151 | 0.0 | 0.0 | 0.00 | 0.00 | 0.00 | 85 | 1018.0 |
| 20260505180001 | 11 | 155 | 3.2 | 3.2 | 0.00 | 0.00 | 0.00 | 84 | 1018.0 |
| 20260505175002 | 11 | 165 | 0.0 | 3.2 | 0.00 | 0.00 | 0.00 | 83 | 1018.0 |
| 20260505174001 | 11 | 151 | 1.6 | 3.2 | 0.00 | 0.00 | 0.00 | 82 | 1017.0 |
| 20260505173001 | 11 | 180 | 3.2 | 3.2 | 0.00 | 0.00 | 0.00 | 81 | 1017.0 |
| 20260505172002 | 12 | 150 | 3.2 | 3.2 | 0.00 | 0.00 | 0.00 | 80 | 1017.0 |
| 20260505171001 | 12 | 165 | 4.8 | 4.8 | 0.00 | 0.00 | 0.00 | 79 | 1017.0 |
| 20260505170002 | 12 | 176 | 6.4 | 6.4 | 0.00 | 0.00 | 0.00 | 78 | 1017.0 |
| 20260505165001 | 12 | 153 | 6.4 | 6.4 | 0.00 | 0.00 | 0.00 | 77 | 1017.0 |
| 20260505164002 | 12 | 148 | 4.8 | 6.4 | 0.00 | 0.00 | 0.00 | 77 | 1017.0 |
| 20260505163001 | 13 | 156 | 6.4 | 8.0 | 0.00 | 0.00 | 0.00 | 74 | 1017.0 |
| 20260505162002 | 13 | 153 | 8.0 | 8.0 | 0.00 | 0.00 | 0.00 | 72 | 1017.0 |
| 20260505161002 | 13 | 162 | 8.0 | 9.7 | 0.00 | 0.00 | 0.00 | 70 | 1017.0 |
| 20260505153002 | 13 | 164 | 11.3 | 11.3 | 0.00 | 0.00 | 0.00 | 69 | 1017.0 |
| 20260505152001 | 13 | 165 | 11.3 | 14.5 | 0.00 | 0.00 | 0.00 | 69 | 1017.0 |
| 20260505151001 | 14 | 138 | 8.0 | 11.3 | 0.00 | 0.00 | 0.00 | 68 | 1017.0 |
| 20260505125002 | 15 | 160 | 11.3 | 14.5 | 0.00 | 0.00 | 0.00 | 58 | 1018.0 |
| 20260505124002 | 15 | 164 | 11.3 | 11.3 | 0.00 | 0.00 | 0.00 | 64 | 1018.0 |
| 20260505123001 | 15 | 158 | 11.3 | 12.9 | 0.00 | 0.00 | 0.00 | 63 | 1018.0 |
| 20260505122002 | 15 | 155 | 9.7 | 14.5 | 0.00 | 0.00 | 0.00 | 63 | 1018.0 |
| 20260505121001 | 15 | 159 | 14.5 | 14.5 | 0.00 | 0.00 | 0.00 | 63 | 1018.0 |
| 20260505120002 | 15 | 171 | 11.3 | 17.7 | 0.00 | 0.00 | 0.00 | 68 | 1018.0 |
| 20260505115001 | 15 | 165 | 8.0 | 12.9 | 0.00 | 0.00 | 0.00 | 66 | 1018.0 |
| 20260505114002 | 15 | 150 | 12.9 | 12.9 | 0.00 | 0.00 | 0.00 | 64 | 1018.0 |
| 20260505113002 | 15 | 168 | 11.3 | 16.1 | 0.00 | 0.00 | 0.00 | 67 | 1018.0 |
| 20260505112001 | 15 | 170 | 14.5 | 16.1 | 0.00 | 0.00 | 0.00 | 68 | 1018.0 |
| 20260505111002 | 15 | 169 | 11.3 | 14.5 | 0.00 | 0.00 | 0.00 | 66 | 1018.0 |
| 20260505102002 | 16 | 127 | 8.0 | 9.7 | 0.00 | 0.00 | 0.00 | 57 | 1018.0 |
| 20260505101001 | 16 | 158 | 12.9 | 14.5 | 0.00 | 0.00 | 0.00 | 57 | 1018.0 |
| 20260505100002 | 16 | 126 | 17.7 | 17.7 | 0.00 | 0.00 | 0.00 | 55 | 1018.0 |
| 20260505095001 | 16 | 109 | 19.3 | 20.9 | 0.00 | 0.00 | 0.00 | 51 | 1018.0 |
| 20260505094002 | 16 | 107 | 9.7 | 16.1 | 0.00 | 0.00 | 0.00 | 50 | 1018.0 |
| 20260505093001 | 16 | 105 | 14.5 | 17.7 | 0.00 | 0.00 | 0.00 | 47 | 1018.0 |
| 20260505092002 | 16 | 102 | 11.3 | 14.5 | 0.00 | 0.00 | 0.00 | 49 | 1018.0 |
| 20260505091002 | 16 | 112 | 14.5 | 16.1 | 0.00 | 0.00 | 0.00 | 47 | 1018.0 |
| 20260505090001 | 16 | 116 | 8.0 | 12.9 | 0.00 | 0.00 | 0.00 | 51 | 1018.0 |
| 20260505085002 | 16 | 102 | 16.1 | 17.7 | 0.00 | 0.00 | 0.00 | 49 | 1018.0 |
| 20260505084001 | 17 | 112 | 9.7 | 16.1 | 0.00 | 0.00 | 0.00 | 46 | 1018.0 |
| 20260505083002 | 17 | 88 | 8.0 | 11.3 | 0.00 | 0.00 | 0.00 | 40 | 1018.0 |
| 20260505082001 | 17 | 82 | 8.0 | 8.0 | 0.00 | 0.00 | 0.00 | 40 | 1018.0 |
| 20260505081001 | 17 | 87 | 8.0 | 9.7 | 0.00 | 0.00 | 0.00 | 41 | 1018.0 |
| 20260505080002 | 17 | 118 | 9.7 | 11.3 | 0.00 | 0.00 | 0.00 | 42 | 1018.0 |
| 20260505075002 | 17 | 127 | 8.0 | 12.9 | 0.00 | 0.00 | 0.00 | 42 | 1018.0 |
| 20260505074001 | 17 | 103 | 9.7 | 11.3 | 0.00 | 0.00 | 0.00 | 44 | 1018.0 |
| 20260505073002 | 17 | 77 | 6.4 | 8.0 | 0.00 | 0.00 | 0.00 | 44 | 1018.0 |
| 20260505072002 | 17 | 67 | 4.8 | 9.7 | 0.00 | 0.00 | 0.00 | 45 | 1018.0 |
| 20260505071001 | 16 | 60 | 9.7 | 12.9 | 0.00 | 0.00 | 0.00 | 43 | 1018.0 |
| 20260505070002 | 16 | 78 | 6.4 | 8.0 | 0.00 | 0.00 | 0.00 | 46 | 1018.0 |
| 20260505065002 | 16 | 69 | 9.7 | 11.3 | 0.00 | 0.00 | 0.00 | 47 | 1018.0 |
| 20260505064001 | 15 | 72 | 4.8 | 8.0 | 0.00 | 0.00 | 0.00 | 51 | 1018.0 |
| 20260505063002 | 15 | 36 | 11.3 | 14.5 | 0.00 | 0.00 | 0.00 | 51 | 1018.0 |
| 20260505062002 | 15 | 56 | 9.7 | 11.3 | 0.00 | 0.00 | 0.00 | 54 | 1018.0 |
| 20260505061001 | 14 | 59 | 8.0 | 9.7 | 0.00 | 0.00 | 0.00 | 58 | 1018.0 |
| 20260505060003 | 14 | 53 | 8.0 | 11.3 | 0.00 | 0.00 | 0.00 | 56 | 1018.0 |
| 20260505055002 | 13 | 61 | 11.3 | 14.5 | 0.00 | 0.00 | 0.00 | 59 | 1018.0 |
| 20260505054002 | 13 | 22 | 8.0 | 9.7 | 0.00 | 0.00 | 0.00 | 59 | 1018.0 |
| 20260505053001 | 13 | 42 | 6.4 | 6.4 | 0.00 | 0.00 | 0.00 | 62 | 1018.0 |
| 20260505052002 | 12 | 22 | 6.4 | 11.3 | 0.00 | 0.00 | 0.00 | 62 | 1018.0 |
| 20260505051001 | 11 | 13 | 6.4 | 9.7 | 0.00 | 0.00 | 0.00 | 63 | 1018.0 |
| 20260505041002 | 7 | 7 | 3.2 | 4.8 | 0.00 | 0.00 | 0.00 | 72 | 1017.0 |
| 20260505040002 | 6 | 5 | 6.4 | 11.3 | 0.00 | 0.00 | 0.00 | 74 | 1017.0 |
| 20260505035002 | 5 | 21 | 4.8 | 4.8 | 0.00 | 0.00 | 0.00 | 75 | 1017.0 |
| 20260505034001 | 5 | 354 | 3.2 | 6.4 | 0.00 | 0.00 | 0.00 | 77 | 1017.0 |
| 20260505033002 | 4 | 4 | 11.3 | 11.3 | 0.00 | 0.00 | 0.00 | 78 | 1017.0 |
| 20260505032001 | 4 | 0 | 11.3 | 11.3 | 0.00 | 0.00 | 0.00 | 79 | 1017.0 |
| 20260505031002 | 4 | 356 | 8.0 | 11.3 | 0.00 | 0.00 | 0.00 | 79 | 1017.0 |
| 20260505030001 | 4 | 2 | 8.0 | 9.7 | 0.00 | 0.00 | 0.00 | 79 | 1017.0 |
| 20260505025002 | 4 | 2 | 8.0 | 9.7 | 0.00 | 0.00 | 0.00 | 78 | 1017.0 |
| 20260505024001 | 5 | 6 | 9.7 | 11.3 | 0.00 | 0.00 | 0.00 | 77 | 1017.0 |
| 20260505023002 | 5 | 356 | 4.8 | 11.3 | 0.00 | 0.00 | 0.00 | 76 | 1017.0 |
| 20260505022001 | 5 | 357 | 9.7 | 11.3 | 0.00 | 0.00 | 0.00 | 75 | 1016.0 |
| 20260505021002 | 5 | 352 | 6.4 | 8.0 | 0.00 | 0.00 | 0.00 | 75 | 1017.0 |
| 20260505020001 | 5 | 0 | 8.0 | 9.7 | 0.00 | 0.00 | 0.00 | 75 | 1016.0 |
| 20260505015002 | 5 | 358 | 4.8 | 6.4 | 0.00 | 0.00 | 0.00 | 76 | 1016.0 |
| 20260505014002 | 5 | 0 | 6.4 | 8.0 | 0.00 | 0.00 | 0.00 | 76 | 1017.0 |
| 20260505013001 | 5 | 1 | 4.8 | 6.4 | 0.00 | 0.00 | 0.00 | 76 | 1016.0 |
| 20260505012002 | 5 | 0 | 6.4 | 8.0 | 0.00 | 0.00 | 0.00 | 77 | 1017.0 |
| 20260505011001 | 5 | 0 | 4.8 | 6.4 | 0.00 | 0.00 | 0.00 | 77 | 1017.0 |
| 20260505010002 | 4 | 12 | 3.2 | 4.8 | 0.00 | 0.00 | 0.00 | 78 | 1017.0 |
| 20260505005001 | 4 | 359 | 6.4 | 6.4 | 0.00 | 0.00 | 0.00 | 78 | 1017.0 |
| 20260505004002 | 4 | 6 | 4.8 | 6.4 | 0.00 | 0.00 | 0.00 | 79 | 1017.0 |
| 20260505003002 | 5 | 3 | 3.2 | 6.4 | 0.00 | 0.00 | 0.00 | 79 | 1017.0 |
| 20260505002002 | 4 | 15 | 3.2 | 3.2 | 0.00 | 0.00 | 0.00 | 80 | 1017.0 |
| 20260505001002 | 5 | 10 | 1.6 | 1.6 | 0.00 | 0.00 | 0.00 | 79 | 1017.0 |
| 20260505000001 | 5 | 38 | 1.6 | 3.2 | 0.00 | 0.00 | 0.00 | 78 | 1017.0 |
| 20260504235002 | 5 | 108 | 6.4 | 8.0 | 0.00 | 0.00 | 0.00 | 79 | 1017.0 |
| 20260504234001 | 5 | 358 | 1.6 | 3.2 | 0.00 | 0.00 | 0.00 | 76 | 1017.0 |
| 20260504233001 | 5 | 344 | 3.2 | 4.8 | 0.00 | 0.00 | 0.00 | 76 | 1017.0 |
| 20260504232002 | 6 | 0 | 1.6 | 4.8 | 0.00 | 0.00 | 0.00 | 74 | 1017.0 |
| 20260504231001 | 6 | 359 | 3.2 | 3.2 | 0.00 | 0.00 | 0.00 | 74 | 1017.0 |
| 20260504230002 | 6 | 358 | 1.6 | 3.2 | 0.00 | 0.00 | 0.00 | 73 | 1017.0 |
| 20260504225001 | 6 | 355 | 3.2 | 4.8 | 0.00 | 0.00 | 0.00 | 72 | 1017.0 |
| 20260504224002 | 7 | 0 | 4.8 | 6.4 | 0.00 | 0.00 | 0.00 | 71 | 1017.0 |
| 20260504223001 | 7 | 358 | 8.0 | 8.0 | 0.00 | 0.00 | 0.00 | 68 | 1017.0 |
| 20260504222002 | 7 | 8 | 4.8 | 6.4 | 0.00 | 0.00 | 0.00 | 67 | 1017.0 |
| 20260504221001 | 7 | 353 | 8.0 | 8.0 | 0.00 | 0.00 | 0.00 | 67 | 1017.0 |
| 20260504220002 | 7 | 356 | 12.9 | 12.9 | 0.00 | 0.00 | 0.00 | 67 | 1017.0 |
| 20260504215001 | 7 | 14 | 8.0 | 11.3 | 0.00 | 0.00 | 0.00 | 68 | 1017.0 |